FW7562 Weather Reports


Display with metric or nautical units.
time (UTC)temp
F
wind
direction
speed
MPH
gust
MPH
rain 1hr
in
rain 24hr
in
rain mn
in
humidity
%
barometer
mb
20260504081523 46 160 6.0 9.0 0.00 0.00 0.00 57 1013.7
20260504080120 46 165 5.0 7.0 0.00 0.00 0.00 56 1013.7
20260504044600 48 157 4.0 7.0 0.00 0.00 0.00 52 1014.0
20260504043059 48 164 3.0 5.0 0.00 0.00 0.00 52 1014.0
20260504041551 48 168 2.0 4.0 0.00 0.00 0.00 52 1014.0
20260504040111 49 171 4.0 6.0 0.00 0.00 0.00 50 1014.1
20260504034547 49 190 2.0 3.0 0.00 0.00 0.00 50 1014.1
20260504033049 49 190 1.0 3.0 0.00 0.00 0.00 50 1014.1
20260504031555 49 190 2.0 3.0 0.00 0.00 0.00 51 1014.2
20260504030046 49 200 2.0 3.0 0.00 0.00 0.00 50 1014.2
20260504024545 50 254 1.0 2.0 0.00 0.00 0.00 49 1014.2
20260504023045 50 254 0.0 0.0 0.00 0.00 0.00 49 1014.6
20260504021544 50 254 0.0 0.0 0.00 0.00 0.00 48 1014.6
20260504020053 50 254 0.0 2.0 0.00 0.00 0.00 49 1014.4
20260504014544 50 254 0.0 1.0 0.00 0.00 0.00 49 1014.4
20260504013044 50 254 0.0 1.0 0.00 0.00 0.00 51 1014.4
20260504011543 50 254 0.0 1.0 0.00 0.00 0.00 50 1014.3
20260504010042 51 254 0.0 2.0 0.00 0.00 0.00 47 1014.3
20260504004541 51 254 2.0 4.0 0.00 0.00 0.00 47 1014.2
20260504003040 51 241 3.0 9.0 0.00 0.00 0.00 47 1014.0
20260504001549 51 232 1.0 3.0 0.00 0.00 0.00 48 1013.6
20260504000040 51 232 1.0 3.0 0.00 0.00 0.00 48 1013.4
20260503234600 50 232 1.0 3.0 0.00 0.00 0.00 49 1013.3
20260503233046 52 233 1.0 3.0 0.00 0.00 0.00 46 1013.4
20260503231538 52 236 1.0 3.0 0.00 0.00 0.00 46 1013.4
20260503230038 51 236 1.0 3.0 0.00 0.00 0.00 49 1013.3
20260503224536 52 236 1.0 3.0 0.00 0.00 0.00 47 1013.4
20260503223038 52 236 1.0 3.0 0.00 0.00 0.00 47 1013.3
20260503221537 52 236 1.0 5.0 0.00 0.00 0.00 45 1013.5
20260503220034 52 256 2.0 5.0 0.00 0.00 0.00 45 1013.7
20260503214532 52 239 0.0 4.0 0.00 0.00 0.00 47 1013.7
20260503213036 51 246 2.0 6.0 0.00 0.00 0.00 46 1013.7
20260503211539 52 246 3.0 12.0 0.00 0.00 0.00 47 1013.6
20260503210031 52 252 5.0 9.0 0.00 0.00 0.00 48 1014.0
20260503204530 52 261 3.0 9.0 0.00 0.00 0.00 46 1013.9
20260503203031 51 243 5.0 9.0 0.00 0.00 0.00 45 1013.9
20260503201529 52 284 4.0 11.0 0.00 0.00 0.00 42 1013.7
20260503200029 53 279 2.0 9.0 0.00 0.00 0.00 39 1013.8
20260503194526 52 250 3.0 8.0 0.00 0.00 0.00 41 1013.9
20260503193025 52 253 4.0 8.0 0.00 0.00 0.00 38 1014.0
20260503191530 53 257 4.0 7.0 0.00 0.00 0.00 39 1014.4
20260503190023 53 245 3.0 7.0 0.00 0.00 0.00 38 1014.2
20260503184520 52 312 4.0 8.0 0.00 0.00 0.00 37 1014.5
20260503183019 51 279 4.0 9.0 0.00 0.00 0.00 38 1014.7
20260503181517 51 213 5.0 11.0 0.00 0.00 0.00 37 1014.8
20260503180016 51 244 3.0 9.0 0.00 0.00 0.00 38 1014.9
20260503174513 50 258 2.0 7.0 0.00 0.00 0.00 41 1015.4
20260503173012 50 225 4.0 12.0 0.00 0.00 0.00 43 1015.6
20260503171510 50 241 4.0 8.0 0.00 0.00 0.00 43 1015.7